Regional Weather Roundup
Issued by NWS Jackson, KY

Home | Current Version | Previous Version | Text Only | Print | Product List | Glossary Off
Versions: 1 2 3 4 5 6 7 8 9 10 11 12 13 14 15 16 17 18 19 20 21 22 23 24 25 26 27 28 29 30 31 32 33 34 35 36 37 38 39 40 41 42 43 44 45 46 47

000
ASUS43 KJKL 280710
RWRJKL

EAST KENTUCKY HOURLY WEATHER ROUNDUP
NATIONAL WEATHER SERVICE JACKSON KY
300 AM EDT TUE JUL 28 2015

NOTE: "FAIR" INDICATES FEW OR NO CLOUDS BELOW 12,000 FEET WITH
NO SIGNIFICANT WEATHER AND/OR OBSTRUCTIONS TO VISIBILITY.

* THESE REPORTS ARE NOT UNDER NWS QUALITY CONTROL AND MAY NOT
  REPORT WEATHER SUCH AS PRECIPITATION AND FOG.

KYZ079-080-083-085-087-088-110-112-115-119-120-280800
...EASTERN KENTUCKY...

CITY           SKY/WX    TMP DP  RH WIND       PRES   REMARKS
JACKSON        PTCLDY    73  71  93 CALM      30.02F FOG
LONDON         CLEAR     73  68  84 CALM      30.01F HAZE
SOMERSET*      MOCLDY    70  70 100 CALM      30.01S FOG
MONTICELLO*    PTCLDY    73  73 100 CALM      30.02F FOG
WILLIAMSBURG*  CLEAR     72  72 100 CALM      30.01
MIDDLESBORO*   CLOUDY    71  71 100 CALM      30.02F FOG
HAZARD APT*    PTSUNNY   73  73 100 CALM      30.02F FOG
BLACK MTN*       N/A     68  66  94 N2          N/A
PIKEVILLE APT* CLOUDY    72  72 100 CALM      30.02F FOG
BIG SANDY*     MOSUNNY   71  70  99 CALM      30.01F FOG
MOREHEAD APT*  PTSUNNY   72  68  88 CALM      30.01F
$$

KYZ035-036-041-042-044-050-067-078-099-280800
...CENTRAL KENTUCKY...

CITY           SKY/WX    TMP DP  RH WIND       PRES   REMARKS
MT STERLING*   MOCLDY    70  70 100 W3        30.01S FOG
FLEMING/MASON* CLEAR     72  70  94 NE3       30.00F
DANVILLE*      MOCLDY    72  70  94 CALM      30.01S FOG
RICHMOND*      MOCLDY    73  70  88 CALM      29.99F
LEXINGTON      MOCLDY    75  71  87 CALM      29.99F
FRANKFORT      CLOUDY    74  69  85 CALM      29.97F
$$

KYZ091>093-OHZ055-061-077-WVZ005-015-034-035-042-280800
...SOUTHERN OHIO/WEST VIRGINIA...

CITY           SKY/WX    TMP DP  RH WIND       PRES   REMARKS
COVINGTON      CLOUDY    77  72  84 CALM      29.98F
COLUMBUS       MOCLDY    72  65  78 N3        29.99F
DAYTON         PTCLDY    73  66  78 E6        30.00F
WILMINGTON     PTCLDY    71  69  93 CALM      29.99F FOG
HUNTINGTON     PTCLDY    72  72 100 CALM      29.99S
CHARLESTON     CLOUDY    71  69  93 CALM      30.00F FOG
PINEVILLE*     DRIZZLE   71  71 100 MISG      30.10F
BECKLEY        CLOUDY    71  66  84 SE5       30.09F
BLUEFIELD      CLOUDY    72  66  81 CALM      30.12F
$$

VAZ002-007-008-TNZ017-027-036-066-071-280800
...SOUTHWEST VIRGINIA/EAST TENNESSEE...

CITY           SKY/WX    TMP DP  RH WIND       PRES   REMARKS
WISE*          CLOUDY    72  72 100 CALM      30.11F FOG
ABINGDON*      MOCLDY    71  69  93 E6        30.08S
BRISTOL        MOCLDY    72  70  93 CALM      30.04F FOG
KNOXVILLE      MOCLDY    76  73  91 E3        29.99F
OAK RIDGE      PTCLDY    75  71  87 CALM      30.01F
CROSSVILLE     PTCLDY    73  70  90 CALM      30.05F FOG
NASHVILLE      MOCLDY    79  76  90 CALM      29.97F
$$

...KEY TO REMARKS...
VSB - VISIBILITY IN MILES
WCI - WIND CHILL INDEX
HX  - HEAT INDEX

$$


USA.gov is the U.S. government's official web portal to all federal, state and local government web resources and services.